Wind_Speed
14 17 16 14 12 11 11 10 10 9 9 8 8 7 7 7 7 6 6 6 6 7 7 7 6 6 5 5 5 5 5 4 3 3 4 5 5 7 9 11 14 18 20 21 20 19 18 17 17 18 17 16 15 15 14 14 15 15 13 12 12 12 13 15 17 18 17 17 18 19 21 23 25 26 27 27 27 26 26 28 30 31 30 27 25
10 14 15 14 13 12 12 12 11 11 10 10 9 9 9 8 7 6 6 7 8 8 8 8 7 6 6 6 6 5 6 5 4 4 5 6 5 5 8 10 13 17 20 21 20 19 19 18 17 18 17 16 15 14 14 14 15 15 12 12 11 11 13 15 17 17 17 16 16 17 20 23 24 26 27 27 27 27 26 27 28 30 31 31 28
9 12 14 14 14 13 13 13 13 12 12 12 11 11 10 8 7 6 7 8 9 9 9 8 7 7 6 6 6 6 6 5 5 5 5 6 6 4 6 9 12 16 19 21 21 20 19 19 18 18 17 16 15 14 14 14 15 14 12 11 11 11 12 15 16 16 16 15 15 16 18 21 24 25 25 26 27 28 27 27 27 28 29 31 31
11 12 14 14 14 13 13 14 14 14 13 13 12 11 10 8 8 7 7 9 10 10 9 9 8 7 7 7 6 6 6 6 5 6 5 6 6 5 5 7 11 14 18 20 21 21 20 19 18 18 17 17 15 14 14 14 15 15 12 11 10 10 12 14 15 15 15 14 14 15 17 20 23 24 24 25 26 28 28 27 27 27 27 29 30
11 12 13 13 13 13 14 14 14 14 14 13 13 12 10 9 9 8 8 10 10 10 9 9 8 8 8 8 7 6 7 7 6 6 6 6 6 5 4 6 9 13 16 20 21 22 21 19 18 18 18 17 16 15 15 15 15 15 13 11 11 10 12 13 14 14 13 13 13 14 16 18 21 23 24 24 25 26 27 28 28 27 26 27 28
11 11 12 12 13 13 14 15 15 15 14 14 13 12 12 11 11 10 10 10 10 10 10 9 9 9 9 9 8 7 7 8 8 7 6 6 7 5 4 5 8 12 15 18 21 22 21 20 19 19 18 18 17 16 15 15 15 15 14 12 11 10 11 12 12 12 12 12 12 12 14 17 19 22 23 24 25 25 26 27 28 27 27 26 26
10 11 12 13 13 14 15 16 16 16 15 15 13 13 13 13 12 11 10 10 10 11 11 10 10 9 9 9 9 7 8 8 8 8 7 6 6 6 4 5 8 11 13 17 20 21 22 21 20 19 19 19 18 17 16 16 15 15 14 12 11 11 11 11 11 11 11 10 10 11 13 15 17 20 22 23 24 24 24 25 26 27 27 26 26
10 12 13 14 15 15 15 16 17 17 16 15 15 14 14 14 13 13 12 11 11 11 12 11 10 9 9 10 9 8 8 9 9 8 8 7 7 6 5 5 8 10 12 15 18 21 22 22 22 21 20 20 19 19 17 16 16 16 15 13 11 11 11 10 10 10 9 9 9 9 11 14 16 18 20 21 22 23 23 23 24 25 26 27 26
10 12 14 15 16 16 16 17 18 17 16 16 16 15 15 16 15 15 14 12 12 12 12 11 10 9 9 10 9 9 9 9 9 8 8 7 7 6 6 6 8 9 12 14 17 20 22 23 23 22 21 21 20 19 18 17 17 16 15 14 12 11 10 10 10 9 9 8 8 8 9 12 15 16 18 19 21 22 22 22 23 24 25 26 26
8 11 14 16 17 17 17 18 18 18 17 16 16 17 17 17 17 17 15 14 13 13 12 11 10 10 10 10 9 9 9 9 8 8 7 7 6 6 6 7 8 9 11 13 16 19 21 23 24 24 23 22 21 20 19 19 18 17 16 15 13 12 11 10 9 9 8 7 7 7 7 10 13 14 16 18 19 20 21 21 22 22 23 24 25
4 8 12 15 16 17 17 17 17 17 17 17 16 18 18 17 16 17 17 15 14 13 12 11 11 10 10 10 9 8 8 8 8 7 6 6 5 5 5 6 8 10 12 13 16 18 20 22 24 24 24 23 22 21 20 20 19 18 17 16 15 13 12 10 9 8 8 7 6 6 6 7 10 12 14 16 17 18 19 20 20 21 21 22 23
4 6 9 13 16 17 18 17 17 18 18 18 17 18 19 18 16 16 17 16 14 13 12 11 11 11 10 10 9 9 8 8 8 7 7 6 5 4 4 5 7 9 11 13 15 17 19 21 23 25 25 24 23 23 22 21 20 19 18 17 16 15 13 12 10 8 7 6 5 5 4 5 7 10 12 13 15 16 17 17 18 19 20 20 21
7 7 8 11 15 17 18 19 19 19 19 18 18 19 20 19 17 17 17 15 14 13 12 11 11 11 10 10 9 9 9 8 8 8 7 6 5 5 5 6 7 8 9 11 14 17 18 19 22 24 25 25 24 24 24 23 22 21 19 18 18 17 15 13 11 10 8 7 6 5 4 4 5 7 9 10 12 14 15 15 16 17 18 19 20
7 7 8 10 14 17 20 21 20 20 20 19 19 20 20 19 17 17 16 14 13 12 12 11 10 10 9 9 8 9 9 8 8 8 7 7 6 6 6 6 7 7 7 8 11 14 17 19 20 23 24 25 25 25 25 24 23 22 21 20 19 18 17 15 14 12 10 8 7 6 5 4 3 4 6 8 9 11 13 13 14 15 16 17 18
6 7 8 10 13 17 22 24 22 23 22 21 21 20 19 18 15 15 15 13 13 12 11 10 9 8 7 7 8 8 8 8 8 8 8 8 7 7 7 8 8 8 7 7 8 10 14 17 19 22 24 25 26 26 26 26 25 24 22 21 21 20 18 17 16 14 13 11 9 8 7 5 4 3 4 5 6 8 10 11 12 12 14 15 16
6 7 8 10 13 17 21 20 21 21 20 20 20 18 15 13 13 13 13 12 12 11 10 9 8 7 7 8 8 8 8 8 8 9 9 8 8 8 9 9 8 8 7 6 7 8 9 12 17 21 23 24 26 27 27 27 26 25 24 23 22 21 20 19 18 17 15 13 12 11 9 7 6 4 3 3 4 5 7 9 10 11 11 13 14
6 7 6 8 11 15 16 14 17 17 15 17 17 15 13 12 11 12 11 10 10 11 10 9 8 8 8 8 8 8 8 8 9 8 9 9 9 9 9 9 8 8 7 6 6 7 8 8 12 17 22 24 25 26 27 28 27 25 25 24 23 22 22 21 20 19 17 15 14 13 11 9 8 6 4 2 1 2 4 6 8 9 9 10 12
4 4 3 5 9 12 12 11 16 16 15 16 16 16 14 13 13 12 11 11 11 12 10 9 9 9 8 8 8 8 8 8 8 8 8 8 8 9 9 8 8 8 7 6 6 7 7 7 8 11 16 22 25 26 27 28 28 26 25 25 24 23 23 22 21 20 19 17 15 15 14 12 10 8 6 4 2 1 2 4 5 7 7 8 9
2 2 3 6 10 10 11 13 16 15 13 14 14 14 13 14 13 13 12 12 12 12 10 9 9 8 7 8 8 8 8 8 8 8 7 8 8 8 8 8 8 8 7 6 6 6 7 7 7 8 11 16 22 25 26 27 28 27 25 25 25 24 24 23 23 22 20 19 17 16 15 14 13 11 9 7 5 3 3 3 4 5 6 6 7
3 4 7 9 9 10 12 13 13 12 10 13 14 12 11 12 12 12 12 11 11 10 8 8 8 7 8 8 8 8 8 7 7 7 7 7 7 7 7 7 8 8 7 6 6 7 7 7 7 7 8 11 16 22 26 26 27 28 26 25 25 25 25 25 24 23 22 20 19 17 17 16 15 14 12 10 8 7 6 5 4 4 4 5 5
4 7 10 10 10 11 12 13 15 13 12 14 15 14 10 9 9 9 10 9 8 8 7 7 7 7 7 8 8 8 7 7 7 7 7 8 7 7 7 8 8 8 7 7 7 8 7 7 6 7 7 9 11 16 22 25 27 27 27 25 25 25 25 25 25 24 23 21 20 19 18 18 18 16 15 13 11 10 8 7 6 5 3 3 3
5 10 13 14 15 15 16 17 18 17 16 15 14 13 10 6 6 7 7 6 6 6 7 7 7 7 8 8 8 8 8 8 7 8 8 8 7 7 8 9 9 9 9 9 9 9 9 8 7 7 8 8 10 12 15 21 26 28 27 26 25 25 25 25 25 25 24 23 21 20 19 20 20 19 17 16 14 12 11 10 9 7 5 3 2
6 11 13 15 17 18 17 16 15 15 15 15 12 11 9 7 5 6 6 6 7 7 8 9 9 9 9 9 10 9 9 8 8 9 9 9 9 9 10 11 11 11 11 11 11 11 11 11 10 8 8 8 9 10 12 15 21 26 27 26 24 25 26 25 25 25 25 24 23 21 20 20 20 20 19 18 16 15 13 12 11 9 8 6 3
6 11 13 15 19 18 16 14 13 14 15 13 11 10 9 7 6 6 7 8 9 9 9 10 10 10 10 11 11 10 9 9 9 10 10 10 10 10 11 12 12 13 13 12 13 13 12 13 12 10 8 8 9 10 11 13 16 21 25 26 24 24 25 26 26 25 25 25 24 22 21 21 21 21 20 19 18 17 15 14 13 12 10 8 6
7 10 12 16 19 18 17 16 15 16 16 13 11 10 8 7 7 8 8 9 10 10 10 10 10 10 11 11 11 11 10 10 10 10 10 11 11 10 10 11 12 12 13 12 13 13 12 12 12 11 9 9 9 9 10 12 14 17 21 24 24 24 24 25 26 26 26 26 25 24 23 22 21 21 21 20 19 18 17 15 14 13 12 11 9
8 11 13 17 19 19 19 18 17 17 16 13 10 9 8 7 7 8 8 9 10 10 11 10 10 11 11 11 11 11 11 11 10 10 10 11 11 11 11 11 12 12 12 13 13 13 13 12 11 11 10 9 9 10 10 11 13 15 17 20 22 23 23 24 25 26 26 26 25 25 24 24 22 22 21 21 20 18 17 16 15 14 14 13 11
9 13 15 18 20 20 21 18 17 17 15 11 8 8 9 8 8 7 8 9 10 10 11 11 11 12 12 12 12 12 12 11 11 10 11 11 11 12 12 12 13 13 13 13 12 13 13 12 11 11 11 10 9 9 10 11 12 14 16 18 20 21 22 23 24 24 24 25 25 25 25 24 23 22 22 21 21 19 18 17 16 15 15 14 13
11 14 16 18 20 19 19 19 18 16 11 7 7 8 8 8 7 7 8 9 10 11 11 11 11 12 12 13 13 13 13 12 11 11 12 12 12 13 13 13 13 13 13 12 11 12 12 11 11 11 11 10 9 8 9 10 11 13 14 16 18 19 20 21 22 23 23 24 24 24 24 24 24 22 22 22 21 20 19 18 17 17 16 15 15
14 14 15 17 18 17 18 20 17 13 9 7 6 5 6 6 6 7 8 9 10 10 11 11 11 12 13 14 14 15 14 12 12 13 13 13 13 14 13 12 12 12 12 11 9 10 11 11 11 11 11 10 10 9 8 9 10 11 12 14 16 17 17 18 20 21 23 24 24 23 23 24 24 23 22 21 21 21 20 19 18 18 17 16 16
16 16 16 15 14 16 18 18 15 11 9 7 5 4 4 5 6 7 8 9 10 10 11 11 12 13 14 15 14 13 12 12 13 13 13 13 13 13 12 11 12 12 12 10 8 10 11 11 11 10 11 11 10 10 9 8 9 9 9 11 13 15 15 16 17 19 21 22 23 24 24 24 24 23 22 21 21 21 21 20 19 19 18 17 17
20 17 17 16 15 17 17 15 13 10 8 6 4 4 4 5 5 6 7 8 9 10 11 12 13 14 14 14 12 11 11 13 13 12 13 13 13 13 12 12 12 13 12 11 10 11 11 12 12 11 11 11 11 11 10 9 9 8 9 9 11 12 12 13 14 15 17 19 21 23 24 24 24 23 23 22 22 21 21 20 19 19 19 19 18
24 20 20 18 16 15 15 14 12 9 7 6 4 3 3 4 4 5 7 8 10 10 11 12 13 13 13 12 11 11 13 14 13 12 13 14 14 13 13 13 14 14 14 13 12 11 11 12 13 12 12 12 12 12 12 11 9 8 8 9 9 10 11 11 11 12 13 14 16 19 22 23 24 24 23 22 22 22 21 21 20 19 19 19 18
26 22 22 20 16 14 14 13 11 8 6 4 2 2 2 3 4 4 6 8 10 11 12 12 12 12 12 11 10 11 13 13 13 13 14 15 14 14 14 15 15 15 14 14 13 12 12 13 13 12 12 12 12 12 12 11 10 9 9 9 9 9 10 10 10 10 11 12 13 14 17 19 22 23 22 22 22 22 22 21 20 20 20 19 19
28 26 23 19 17 16 16 13 10 7 4 3 2 2 2 3 3 4 5 7 10 11 12 12 12 12 11 9 9 11 12 12 12 12 13 14 14 14 15 15 15 15 15 14 14 13 12 12 13 13 12 13 13 13 13 13 11 10 10 11 11 10 9 10 10 10 10 10 11 11 13 15 18 21 21 21 21 21 21 21 20 20 20 20 19
30 30 26 18 15 14 14 11 9 7 4 4 4 4 3 3 2 3 5 7 9 11 12 12 11 11 11 10 10 10 11 11 10 10 11 12 13 14 14 15 15 15 15 15 14 13 12 12 12 13 13 14 14 14 15 14 12 11 11 11 11 11 9 9 8 8 9 8 9 10 11 13 15 18 19 19 20 20 20 20 20 20 20 20 20
28 26 27 22 17 13 12 10 8 7 6 6 6 4 3 1 2 4 6 7 9 9 10 11 10 10 11 11 10 10 10 10 10 10 11 12 13 13 13 13 13 14 14 14 15 14 13 12 13 13 14 14 15 15 15 15 12 11 12 12 12 11 10 9 8 8 8 7 7 9 10 11 12 14 15 17 18 19 20 19 19 19 19 19 19
24 22 25 25 20 15 12 8 7 8 9 8 7 4 3 3 4 5 6 7 7 8 9 9 9 9 10 11 11 10 10 11 11 11 11 12 13 12 12 12 13 13 13 14 15 14 13 13 13 13 14 15 15 16 16 15 13 12 12 13 13 12 11 10 9 8 8 7 7 8 9 9 8 9 11 13 14 17 19 19 19 18 18 18 18
24 22 26 27 20 14 11 9 9 11 11 8 6 4 4 4 4 5 6 7 9 9 9 9 8 8 9 10 10 10 10 11 12 12 13 13 13 13 11 11 11 12 12 13 14 15 14 13 13 14 14 15 16 16 16 15 14 13 13 13 13 13 12 11 10 9 9 8 7 7 8 8 7 7 8 10 12 13 15 18 19 18 17 18 18
24 24 30 27 17 15 14 12 11 12 12 9 7 5 5 4 5 6 7 9 10 11 11 10 9 7 6 6 8 9 9 10 11 11 13 13 13 13 12 11 11 11 11 12 13 14 14 14 13 14 14 15 15 16 17 15 14 13 14 14 14 14 13 12 11 10 10 9 9 9 9 9 9 8 9 10 12 13 13 14 17 18 17 17 18
23 24 30 25 18 21 19 13 13 15 15 12 9 7 6 5 6 7 8 10 10 12 12 12 11 9 7 5 5 6 7 7 9 10 12 14 15 15 14 14 13 12 12 12 13 13 13 13 13 14 14 15 15 16 17 15 15 15 15 15 14 14 14 13 12 11 11 10 10 9 9 9 9 10 10 11 12 14 13 13 14 17 17 17 17
21 23 27 27 25 26 19 13 16 18 16 13 10 8 6 5 6 6 8 10 11 12 13 13 12 11 10 8 7 6 6 6 7 7 9 12 14 15 16 16 16 15 14 14 14 14 13 13 13 13 14 15 16 18 18 16 16 17 16 15 15 15 15 14 13 12 12 11 10 10 10 10 9 10 11 12 13 14 14 13 14 16 17 18 18
19 23 26 28 28 25 16 16 20 19 16 14 11 8 7 5 5 6 7 9 10 12 13 13 13 12 10 9 8 7 6 6 6 6 6 7 9 11 13 14 14 15 15 15 15 15 15 14 14 14 14 15 16 17 18 16 16 17 15 14 15 16 15 15 14 13 12 11 11 10 10 10 9 9 10 12 14 14 14 14 15 16 18 21 21
21 26 27 25 25 21 17 19 20 19 17 15 12 9 7 5 4 5 7 8 9 10 12 13 13 12 10 8 7 6 6 6 6 6 5 6 6 7 9 10 11 12 13 14 15 16 16 15 14 14 14 15 15 16 17 17 16 16 16 14 13 14 14 14 14 13 12 11 11 11 10 10 9 8 9 11 14 14 13 14 16 17 19 21 19
25 29 24 22 22 21 20 22 21 20 19 16 13 9 6 4 3 4 5 6 8 9 10 12 12 12 10 9 8 7 6 6 5 5 4 5 5 5 6 7 9 10 11 13 14 14 15 15 14 14 14 15 16 16 17 17 15 14 15 14 13 13 13 13 12 13 13 12 12 11 11 11 10 9 9 10 13 15 15 15 17 18 20 21 18
24 26 21 21 23 22 23 25 23 22 20 16 13 9 6 4 3 3 3 5 7 8 9 10 11 11 11 10 8 7 6 5 5 4 3 3 4 4 4 5 6 7 9 10 11 12 13 13 12 12 12 13 15 16 16 15 14 13 13 13 13 12 11 12 12 12 13 13 13 13 12 12 12 11 10 10 11 13 15 15 17 19 21 22 19
21 25 21 20 23 24 25 26 23 22 20 16 13 9 6 5 3 3 2 3 5 7 8 9 11 12 12 10 9 7 6 5 5 4 3 3 3 3 3 4 4 5 6 7 8 9 10 10 11 11 11 12 13 15 16 15 14 13 13 12 12 12 11 12 13 12 13 13 13 14 13 13 13 12 11 10 10 11 12 13 14 16 19 22 21
21 25 23 21 24 25 26 25 23 21 20 16 13 10 7 5 3 3 2 3 4 5 7 9 10 11 12 11 10 9 8 6 6 5 4 3 3 2 2 3 4 4 4 4 5 5 6 7 8 9 9 10 11 13 15 15 14 13 12 12 12 13 13 13 13 13 13 13 14 14 13 12 13 12 11 10 11 12 11 11 10 11 13 17 20
22 24 24 24 26 26 26 25 23 22 21 17 13 10 8 6 4 2 2 2 3 4 6 8 9 11 12 12 11 10 9 8 7 7 5 4 3 2 2 3 4 4 3 3 3 3 3 4 5 6 6 7 9 10 12 13 12 11 10 11 11 12 13 13 12 13 14 13 14 14 13 13 12 12 11 12 13 12 10 11 10 10 11 13 16
22 24 25 26 27 27 27 26 24 24 22 18 14 11 9 7 5 3 1 0 1 3 5 7 8 10 12 12 12 11 10 9 8 8 7 6 4 3 2 3 4 4 4 3 2 2 2 2 3 3 4 4 5 7 8 9 9 8 8 9 9 9 10 10 11 12 12 13 14 14 13 13 12 11 12 13 14 13 11 11 11 11 11 11 13
23 25 27 27 27 27 27 26 25 25 23 19 16 13 11 8 6 4 3 2 1 2 3 5 7 9 11 12 13 12 10 9 8 8 7 7 6 4 3 3 3 4 4 4 3 2 2 1 1 0 1 2 3 4 5 7 7 8 8 9 10 10 10 10 10 11 10 10 12 12 13 13 12 12 13 14 15 14 13 13 12 11 10 9 10
26 27 25 24 25 26 27 26 26 25 23 20 17 15 12 10 8 6 5 3 2 2 3 4 6 8 10 11 12 12 10 9 8 7 7 7 6 5 4 4 3 4 4 5 4 4 3 3 2 1 1 0 1 2 3 5 5 7 7 8 9 10 10 10 10 11 11 11 11 11 12 13 12 13 14 15 16 16 15 15 14 12 9 8 8
Wind_Direction
245 233 230 227 224 214 208 207 203 201 199 199 199 203 204 208 212 215 221 227 231 235 238 236 229 216 201 182 165 145 124 114 119 122 126 129 146 164 168 170 171 172 174 175 174 172 170 168 165 162 164 162 157 150 147 142 134 135 132 125 117 110 103 98 93 90 86 81 78 76 73 68 65 62 60 58 57 58 60 61 60 59 60 61 61
242 235 233 233 229 215 209 209 206 202 199 200 201 203 206 208 210 213 218 224 229 234 235 232 227 217 202 186 173 155 131 123 131 127 130 130 134 163 171 173 173 176 178 178 178 177 174 172 171 167 168 168 162 156 153 147 140 140 136 128 122 116 108 101 97 92 87 81 77 75 75 71 66 64 61 58 57 56 58 59 60 59 59 59 60
225 228 232 231 226 214 210 210 206 201 199 201 201 203 204 204 204 209 213 219 225 228 229 228 226 218 207 194 181 163 138 127 137 131 135 135 128 151 172 176 176 179 181 182 182 182 179 177 177 173 172 172 168 162 159 154 146 145 141 135 130 123 114 106 101 95 89 83 77 74 74 74 69 65 62 59 57 56 56 57 58 58 58 58 58
216 215 225 227 224 217 212 211 207 201 199 201 202 203 201 199 201 206 210 216 221 224 225 223 223 220 212 203 187 170 148 134 146 142 140 136 125 141 167 178 180 183 184 185 187 187 185 182 181 179 178 177 174 167 164 160 152 150 148 143 138 130 120 111 105 99 92 85 77 73 73 75 72 67 63 60 58 56 55 54 55 56 57 57 57
214 209 221 225 224 218 210 210 208 202 200 202 203 202 199 199 201 204 208 215 219 220 222 220 222 221 216 206 189 178 164 148 154 152 150 142 128 138 164 181 187 188 187 189 191 192 190 188 186 185 183 183 180 174 171 167 158 155 154 150 144 135 126 118 110 103 95 87 79 74 71 73 73 69 65 62 59 56 54 53 53 54 55 56 57
221 218 221 223 223 217 210 210 208 203 201 203 203 201 199 200 202 205 209 214 217 218 218 218 221 221 217 206 190 186 177 159 157 157 159 154 136 140 167 190 193 193 191 193 195 195 194 193 192 190 189 189 187 181 177 174 166 161 159 156 149 141 133 125 116 108 99 90 82 76 72 71 71 70 66 62 60 58 55 53 52 51 52 54 55
236 231 227 224 222 217 213 212 209 203 200 202 202 202 201 201 202 206 210 213 215 216 217 217 218 219 215 203 192 193 183 165 161 160 164 162 150 149 172 199 197 198 197 198 199 198 198 199 198 196 195 194 193 189 183 181 175 167 164 161 156 150 142 132 124 116 105 95 85 77 74 72 71 70 67 64 61 59 56 54 52 50 50 51 53
248 240 234 227 221 218 215 214 211 204 200 200 201 203 204 203 204 207 211 212 214 215 216 216 216 215 212 202 194 196 186 171 167 165 166 167 163 165 180 202 203 203 203 203 203 202 201 203 202 201 200 199 199 196 190 186 183 175 169 168 165 159 151 142 134 125 113 100 89 79 75 74 71 69 68 65 62 61 58 56 53 50 49 50 50
256 251 242 234 226 220 216 216 214 206 199 198 201 205 207 207 207 209 210 211 213 215 215 215 213 212 208 202 197 197 188 175 171 170 171 171 170 176 187 201 209 210 208 208 208 207 205 205 206 206 205 204 203 202 198 193 190 183 175 173 175 171 160 152 145 136 124 110 96 84 78 75 73 69 69 67 64 61 59 57 54 51 49 49 49
253 256 246 238 229 223 220 219 216 212 202 197 202 206 209 210 210 211 210 210 212 214 214 212 208 207 204 200 200 197 190 181 174 173 174 175 175 182 193 201 211 216 215 213 212 212 209 208 209 210 210 209 207 206 204 201 197 191 183 178 183 183 172 164 157 147 137 124 110 95 83 78 75 70 68 67 65 62 59 57 55 52 50 49 49
256 261 250 242 233 227 224 221 218 216 207 198 201 204 209 210 211 212 211 209 210 211 210 208 203 201 200 200 200 197 195 189 177 174 177 180 183 187 201 209 214 219 218 217 216 216 214 212 212 213 214 213 211 209 209 208 204 198 190 184 189 193 185 178 171 162 153 141 127 112 96 85 80 73 67 66 65 63 59 56 55 53 50 49 49
305 283 265 253 242 233 225 219 215 215 208 199 198 200 206 209 208 211 211 207 207 207 206 204 199 196 196 199 200 196 198 197 187 184 187 190 196 201 213 224 226 226 224 222 220 220 219 216 216 216 217 216 215 213 213 213 210 205 198 191 194 198 194 189 186 181 173 163 151 135 119 98 87 79 70 65 64 64 61 57 55 54 50 48 47
328 308 284 270 255 241 225 216 210 212 206 197 196 197 202 206 205 207 207 204 202 201 201 201 196 194 196 200 202 199 199 200 197 196 199 203 209 219 230 238 238 235 231 230 228 226 225 222 220 220 220 219 219 217 216 216 215 211 205 200 201 202 201 198 196 196 194 188 179 166 149 125 101 88 77 66 62 62 62 58 55 54 51 48 46
333 326 300 281 264 248 230 215 206 210 204 192 192 194 198 201 201 203 201 197 196 195 197 198 194 194 197 203 206 206 205 203 204 205 209 214 219 229 240 246 244 240 235 234 234 232 231 230 225 223 224 223 222 221 220 220 218 216 211 208 208 208 206 204 202 201 203 206 204 195 181 165 136 103 87 72 60 59 61 60 56 53 51 49 46
324 329 302 273 261 251 236 215 203 206 200 188 186 191 195 193 195 199 196 192 188 187 192 195 192 193 199 207 209 209 209 208 210 212 215 219 224 232 240 245 244 243 239 235 238 237 236 235 232 227 226 226 225 224 224 224 222 219 215 213 214 213 212 211 209 206 205 209 216 213 204 193 177 147 105 80 62 54 57 58 57 53 51 49 47
317 323 298 273 259 249 243 225 210 209 194 180 177 179 182 177 184 192 190 186 183 181 184 188 189 193 201 206 208 207 208 212 215 218 221 225 230 236 241 245 247 248 246 242 243 246 243 239 236 232 229 228 228 227 227 227 225 222 218 217 218 218 218 218 216 214 209 208 216 222 219 211 200 187 157 105 70 50 52 54 54 55 52 49 46
321 315 304 289 264 248 250 236 215 207 180 164 155 154 160 161 174 186 183 178 179 180 178 185 194 196 199 203 208 211 212 217 223 226 230 235 241 246 249 251 254 255 254 252 249 252 253 246 240 235 233 231 231 230 229 229 228 225 222 220 221 222 223 224 223 222 218 213 214 221 226 223 216 209 200 173 110 42 39 44 48 53 54 49 46
307 290 295 270 258 250 242 214 196 187 164 153 141 142 156 162 174 182 177 173 177 180 180 191 203 198 197 206 214 218 221 225 231 236 241 247 252 256 258 257 257 259 258 257 255 254 255 250 243 239 237 234 233 232 231 231 231 229 225 222 222 225 226 228 229 227 226 221 216 218 225 228 226 224 221 213 209 290 1 21 33 43 50 50 47
253 210 198 222 241 239 212 193 193 187 162 146 137 141 155 161 169 171 169 172 177 182 184 191 200 198 202 214 222 225 228 233 237 242 248 254 258 258 257 256 255 257 257 255 253 252 252 250 246 242 241 238 236 234 233 233 233 232 228 225 224 226 228 230 232 232 231 229 223 220 224 229 230 231 233 232 236 255 292 332 2 22 38 44 44
218 169 183 208 218 213 200 193 194 190 163 137 126 124 140 153 159 160 164 172 177 182 187 193 200 204 211 220 227 233 235 241 241 244 249 252 254 253 251 251 253 254 254 247 243 248 251 251 250 247 246 246 241 237 235 234 235 235 232 228 225 226 229 230 233 236 236 234 231 226 226 231 234 236 239 243 247 255 270 292 318 348 16 29 33
195 171 178 181 174 175 176 168 163 157 140 127 119 116 123 142 152 156 164 172 178 186 196 203 209 212 219 228 236 243 245 245 243 242 245 247 245 246 247 248 252 253 252 245 241 248 254 255 255 255 253 253 251 244 240 237 237 237 235 232 228 227 229 231 233 236 239 239 237 233 231 233 238 241 244 248 252 257 266 277 289 304 330 359 11
183 177 174 164 156 156 156 156 156 148 132 122 118 117 120 131 147 159 168 176 188 200 208 213 216 219 228 237 244 248 249 249 250 251 249 247 245 245 248 249 252 254 253 249 246 249 255 262 262 260 257 255 255 252 247 242 240 239 237 235 231 229 229 232 233 236 239 242 241 239 237 237 241 245 248 251 255 258 263 270 278 285 293 304 325
187 186 180 171 162 156 157 162 162 151 134 124 121 126 131 139 153 167 178 191 205 214 219 221 221 225 234 241 246 248 250 255 258 259 256 251 248 248 250 252 254 255 256 254 252 251 252 260 265 264 259 256 255 254 255 250 245 243 240 237 233 231 230 232 234 235 239 242 243 243 242 241 242 247 250 253 256 260 262 267 272 277 280 279 280
196 195 192 184 174 165 164 166 161 149 139 134 137 143 146 153 165 178 190 203 213 222 224 226 230 236 243 246 249 251 254 259 261 261 259 257 255 255 256 256 255 254 254 254 254 252 249 253 259 263 261 257 255 253 254 254 252 248 245 240 235 233 232 232 234 235 237 241 244 245 245 245 244 247 251 254 257 260 262 265 268 272 275 274 272
200 202 198 189 182 172 165 164 160 156 151 149 150 150 153 163 177 186 199 210 219 226 230 235 242 247 250 251 255 256 257 262 263 261 261 262 263 263 260 255 253 251 251 252 252 249 246 246 251 258 260 256 254 252 250 251 253 253 251 246 238 234 233 233 234 235 237 239 242 245 247 247 246 247 250 254 256 258 261 263 265 267 270 270 271
199 199 197 190 183 173 167 167 165 162 158 154 152 152 157 171 184 195 208 218 225 231 237 243 249 251 251 255 257 254 258 266 266 262 263 264 265 264 257 249 247 245 244 246 247 244 241 241 244 251 255 253 250 251 250 248 250 252 253 252 245 238 235 235 236 237 238 239 241 244 247 248 248 247 249 252 255 256 258 260 262 263 265 266 267
192 191 193 190 183 177 172 171 172 169 160 156 161 159 163 178 190 202 213 222 230 235 240 246 249 252 255 259 259 256 261 266 265 264 264 264 263 259 251 247 245 240 238 237 239 241 239 239 239 244 249 251 248 250 254 252 250 250 252 253 250 243 238 237 238 239 241 242 243 244 247 249 249 248 248 249 252 254 255 256 258 259 260 262 264
187 189 193 192 188 184 180 179 179 175 168 170 180 172 170 185 197 211 223 228 235 241 245 250 254 259 263 265 264 263 264 265 267 267 265 264 263 261 259 255 249 244 241 235 234 241 241 239 239 241 245 249 251 252 257 259 255 253 253 254 254 249 243 240 240 240 241 243 245 245 247 250 251 250 249 248 249 251 252 252 253 255 255 257 260
186 189 194 195 194 192 183 182 184 184 190 191 190 186 179 190 208 222 233 239 245 251 254 258 263 267 268 267 267 268 271 274 273 269 266 267 268 268 269 263 254 251 251 245 240 246 248 244 242 243 245 249 256 259 261 264 264 262 259 259 259 256 250 244 241 240 240 242 244 244 245 248 250 251 249 248 247 248 249 249 249 251 251 252 255
185 189 194 191 190 189 179 180 188 192 195 189 180 189 193 203 222 237 248 256 259 262 265 268 269 270 269 268 271 275 279 279 271 267 267 268 268 267 264 259 259 259 261 262 257 252 253 252 250 247 247 251 257 262 263 263 268 272 270 267 266 264 258 251 245 242 241 241 242 243 243 245 247 249 249 248 247 246 246 246 246 248 248 248 249
183 187 188 177 173 181 179 183 193 193 190 185 181 188 204 228 248 264 267 270 272 273 274 274 272 270 270 271 276 280 276 271 267 266 267 267 265 260 253 252 261 266 266 267 260 253 254 257 258 254 253 256 259 261 261 260 263 269 271 271 270 271 268 261 254 249 246 245 244 245 245 245 246 247 248 248 248 247 246 246 246 247 247 246 246
182 184 182 174 170 177 183 189 194 194 190 187 192 204 230 257 268 274 275 281 284 283 278 276 275 271 271 274 276 276 271 269 268 263 260 261 261 257 253 254 260 265 266 265 260 256 257 262 265 263 261 261 262 263 262 260 260 262 264 267 270 273 274 272 266 261 257 255 252 251 250 249 249 248 247 247 248 248 248 247 245 245 246 246 245
178 182 180 175 173 181 187 188 195 197 191 191 220 245 255 260 261 271 283 294 294 291 286 282 280 277 277 279 276 272 270 271 270 266 261 258 256 256 256 259 262 263 263 263 262 259 260 263 266 267 266 266 267 267 266 262 261 261 262 263 266 269 271 271 270 269 269 268 265 259 255 253 252 251 248 246 246 246 246 246 245 244 245 245 245
176 180 174 171 174 186 191 186 195 197 190 218 236 221 213 227 248 287 302 307 305 300 297 292 289 287 285 280 275 271 270 272 273 272 268 262 258 256 256 259 262 262 260 259 262 262 259 258 262 266 268 270 270 269 269 268 266 266 266 265 265 267 269 268 269 271 273 273 271 264 256 252 253 252 250 246 243 242 243 243 243 243 244 245 245
182 178 166 168 170 177 185 179 188 195 200 213 193 181 189 213 250 320 326 324 319 313 307 301 297 292 286 278 273 272 273 277 278 275 272 267 261 258 259 259 261 262 260 259 262 263 258 254 258 265 266 267 268 269 271 272 272 268 263 263 264 263 263 262 264 269 272 271 266 258 250 245 246 249 249 246 243 240 240 240 241 242 242 243 244
186 175 163 173 174 171 179 176 189 196 191 184 172 168 156 99 10 360 347 340 332 324 316 309 302 293 286 280 276 274 273 274 277 277 274 270 265 263 261 259 258 259 259 260 262 263 260 256 257 262 263 263 264 267 269 272 273 265 256 255 257 257 254 253 257 264 266 263 258 252 247 242 241 244 247 245 243 240 239 238 238 239 240 241 243
186 176 172 184 183 180 183 184 195 182 169 165 163 155 113 68 39 21 3 359 353 346 338 327 316 302 291 285 280 274 270 268 269 269 267 267 268 267 263 260 258 258 258 260 261 261 260 258 257 259 260 261 262 264 266 268 268 262 254 251 252 257 258 257 258 264 265 258 252 249 248 249 246 244 244 244 243 242 240 238 236 237 238 240 240
186 179 187 194 186 186 188 181 180 168 162 162 162 149 114 91 62 44 27 21 16 11 4 354 340 321 303 294 288 279 272 267 266 264 263 265 268 268 266 263 260 260 260 262 263 263 261 258 255 255 257 257 258 260 262 263 263 260 256 252 251 255 258 258 259 263 265 259 251 247 248 249 247 246 246 244 244 244 242 239 237 237 238 240 240
189 186 194 194 180 180 175 164 172 172 166 166 175 168 141 115 80 60 45 36 29 25 20 14 4 352 335 312 298 286 275 266 259 256 257 261 267 270 270 268 264 262 263 263 264 264 262 258 254 254 256 256 257 258 257 257 258 255 253 251 252 255 257 257 255 256 260 259 253 248 247 247 246 247 251 249 247 248 244 240 238 237 238 241 243
199 200 195 184 168 168 162 158 173 174 169 175 186 173 146 115 84 68 57 48 41 34 28 25 19 13 9 352 328 306 289 276 261 250 247 249 255 260 263 265 265 265 264 263 263 263 262 259 255 253 254 254 255 255 255 255 253 249 246 248 251 254 259 258 252 251 254 257 259 257 253 250 249 250 253 253 251 251 248 243 239 237 236 237 240
206 206 188 172 168 168 165 169 171 172 177 185 187 168 146 120 93 77 64 56 47 38 32 29 25 20 16 9 358 341 322 305 289 273 259 253 253 255 258 261 262 263 262 261 260 260 258 256 252 249 249 249 249 251 254 255 253 249 243 245 252 254 257 257 254 252 254 257 263 267 264 260 256 254 254 254 252 250 247 244 243 241 238 235 235
200 194 174 170 175 176 181 182 173 178 188 189 185 171 156 135 105 79 64 57 50 41 34 30 26 22 17 10 3 350 336 324 316 310 295 279 268 263 263 263 263 262 260 258 257 257 256 253 249 245 245 247 248 251 254 254 255 258 252 244 249 254 254 255 255 253 254 260 264 265 265 264 261 255 252 249 247 246 245 244 245 244 240 236 231
177 173 168 176 186 192 199 187 180 185 191 193 189 176 165 147 106 77 61 56 52 43 37 32 26 22 18 13 9 359 348 337 332 330 318 305 290 282 277 271 267 262 258 256 254 254 256 255 252 247 244 244 246 249 253 252 251 259 263 253 245 247 250 255 258 258 259 262 264 263 263 264 264 263 256 244 239 240 241 243 246 246 246 244 238
164 165 169 178 186 196 198 190 187 189 195 199 189 179 178 162 105 76 61 54 50 45 39 34 28 22 19 17 13 4 355 347 341 339 331 319 307 299 290 279 272 265 259 255 253 254 256 257 256 251 245 242 243 245 252 256 253 252 258 257 250 245 248 255 258 260 262 262 262 264 266 268 269 271 265 248 235 235 239 243 249 250 252 256 253
169 169 173 177 181 189 193 193 194 194 200 200 189 184 182 166 132 94 66 52 51 47 40 33 28 23 20 17 11 3 356 347 337 331 324 319 316 315 306 291 282 274 266 261 258 257 257 258 257 253 248 243 242 243 246 254 260 258 256 257 257 253 252 257 258 259 261 262 264 264 265 266 266 267 266 258 246 242 247 249 251 252 253 257 256
177 179 184 186 186 191 196 198 198 200 205 202 193 189 179 170 156 128 85 54 51 50 44 34 27 22 20 17 10 5 359 347 332 322 314 309 313 320 315 304 300 295 287 278 268 262 260 259 259 255 252 247 243 242 244 248 254 261 262 260 261 262 260 259 258 258 259 261 264 266 266 263 261 263 266 268 265 260 259 259 258 257 256 259 260
182 186 192 193 193 196 200 203 203 205 211 207 199 191 181 177 166 139 91 58 45 44 45 37 28 20 16 15 12 7 1 354 344 336 326 312 307 314 322 325 328 327 311 295 284 274 265 260 259 257 254 252 249 246 247 248 250 256 261 261 263 267 265 259 253 252 255 257 261 264 265 261 259 262 266 270 269 266 268 275 278 274 266 263 263
188 189 193 195 197 202 205 207 206 209 215 213 205 197 191 191 186 158 99 51 18 31 43 40 31 19 14 11 10 9 4 360 356 352 348 336 327 326 331 336 341 347 340 327 313 298 285 271 265 262 258 255 254 252 250 252 253 256 260 259 259 260 258 254 251 250 249 248 252 258 260 259 259 263 268 270 271 274 283 292 296 294 286 276 270
197 197 200 200 202 208 212 212 210 212 216 215 209 206 205 210 210 192 156 277 345 27 38 43 32 17 13 8 5 6 6 7 6 1 359 357 354 347 342 339 339 344 348 350 354 345 329 303 279 265 262 260 257 256 254 255 255 252 253 249 244 247 248 246 246 248 244 239 244 251 254 257 259 261 264 269 276 282 286 292 298 299 294 286 278
209 208 208 208 208 212 215 215 213 215 217 216 214 213 216 220 221 213 205 207 175 53 44 45 32 17 11 6 2 3 6 11 12 8 8 8 8 2 353 343 333 332 336 340 349 355 2 359 349 298 262 263 262 259 255 256 254 249 251 247 244 249 251 246 243 247 248 245 246 247 250 254 256 258 261 267 275 279 279 282 287 290 290 286 280
215 212 209 207 209 211 213 215 215 217 219 219 218 218 221 223 223 221 206 189 162 104 67 45 34 22 9 1 1 2 6 15 17 15 18 18 16 11 4 352 334 325 322 326 332 340 346 353 1 17 30 13 245 255 254 255 256 255 256 254 253 256 257 253 246 244 248 250 249 249 252 254 255 258 263 267 272 275 278 282 286 288 290 293 291
Height
3144 3145 3146 3147 3146 3146 3146 3146 3146 3146 3147 3147 3147 3148 3149 3149 3150 3151 3152 3153 3153 3154 3154 3155 3156 3156 3157 3158 3158 3159 3159 3159 3160 3160 3160 3160 3161 3161 3162 3162 3163 3164 3165 3166 3167 3168 3169 3170 3171 3172 3172 3173 3174 3175 3175 3176 3176 3177 3177 3178 3179 3179 3179 3179 3180 3180 3180 3180 3180 3180 3179 3179 3178 3178 3177 3176 3176 3175 3174 3173 3172 3171 3170 3169 3168
3143 3144 3145 3146 3146 3145 3146 3146 3146 3146 3147 3147 3147 3148 3148 3149 3150 3152 3152 3153 3153 3154 3154 3155 3156 3156 3157 3158 3158 3159 3159 3159 3160 3160 3161 3161 3161 3162 3162 3163 3164 3164 3165 3166 3167 3168 3169 3171 3172 3172 3173 3174 3174 3175 3176 3177 3177 3178 3178 3179 3180 3180 3180 3180 3181 3181 3181 3182 3182 3181 3181 3180 3180 3179 3179 3178 3177 3177 3176 3175 3174 3173 3172 3171 3170
3143 3144 3145 3145 3145 3145 3145 3146 3146 3146 3146 3147 3147 3148 3149 3150 3151 3151 3152 3153 3153 3154 3154 3155 3156 3156 3157 3158 3158 3159 3159 3160 3160 3161 3161 3161 3161 3162 3162 3163 3164 3165 3166 3166 3167 3168 3169 3171 3172 3173 3174 3174 3175 3176 3177 3177 3178 3178 3179 3180 3180 3181 3181 3181 3182 3182 3182 3183 3183 3183 3182 3181 3181 3180 3180 3180 3179 3178 3177 3177 3176 3175 3174 3173 3171
3142 3143 3144 3144 3144 3144 3145 3145 3145 3145 3146 3146 3147 3148 3149 3150 3150 3151 3151 3152 3153 3154 3155 3155 3156 3156 3157 3158 3158 3159 3159 3159 3160 3161 3161 3161 3161 3162 3163 3163 3164 3165 3166 3167 3168 3169 3170 3171 3172 3173 3174 3175 3176 3177 3178 3178 3179 3179 3180 3180 3181 3182 3182 3182 3183 3183 3183 3184 3184 3184 3184 3183 3182 3182 3181 3181 3180 3180 3179 3178 3177 3177 3176 3175 3174
3142 3142 3143 3143 3144 3144 3144 3145 3145 3145 3146 3146 3147 3148 3149 3149 3149 3150 3151 3151 3152 3153 3154 3155 3156 3156 3157 3158 3158 3159 3159 3159 3160 3160 3161 3161 3161 3162 3163 3164 3164 3165 3166 3167 3168 3169 3170 3171 3172 3174 3175 3176 3176 3177 3178 3179 3179 3180 3180 3181 3182 3182 3183 3183 3183 3184 3184 3185 3185 3185 3185 3184 3183 3183 3183 3182 3182 3181 3181 3180 3179 3178 3178 3177 3176
3141 3142 3143 3143 3143 3143 3144 3144 3145 3145 3145 3146 3147 3148 3148 3148 3149 3149 3150 3150 3151 3153 3154 3155 3155 3156 3157 3157 3158 3158 3158 3158 3159 3160 3161 3161 3161 3162 3163 3164 3165 3165 3166 3167 3168 3169 3170 3171 3172 3174 3175 3176 3177 3178 3179 3179 3180 3181 3181 3182 3182 3183 3184 3184 3184 3185 3185 3186 3186 3186 3186 3185 3185 3184 3184 3184 3183 3183 3182 3181 3181 3180 3179 3178 3177
3142 3142 3142 3142 3143 3143 3143 3144 3144 3144 3145 3146 3146 3147 3148 3148 3148 3148 3149 3150 3151 3152 3153 3154 3155 3156 3157 3157 3158 3158 3158 3158 3159 3160 3160 3161 3161 3162 3163 3164 3165 3166 3166 3167 3167 3169 3170 3171 3172 3174 3175 3176 3177 3178 3179 3180 3180 3181 3182 3182 3183 3184 3184 3185 3185 3186 3186 3186 3187 3187 3187 3187 3186 3186 3185 3185 3184 3184 3184 3183 3182 3182 3181 3180 3179
3142 3142 3142 3142 3142 3142 3143 3143 3143 3144 3144 3145 3146 3146 3147 3147 3147 3148 3148 3149 3150 3151 3152 3154 3155 3155 3156 3157 3158 3158 3158 3158 3159 3159 3160 3161 3161 3162 3163 3164 3165 3166 3166 3167 3167 3168 3169 3171 3172 3173 3175 3176 3177 3178 3179 3180 3181 3182 3182 3183 3183 3184 3185 3186 3186 3186 3187 3187 3188 3188 3188 3188 3187 3187 3186 3186 3186 3185 3185 3184 3184 3183 3183 3182 3181
3141 3141 3141 3141 3141 3141 3142 3142 3143 3143 3143 3144 3145 3146 3146 3147 3147 3147 3147 3148 3149 3151 3152 3153 3154 3155 3156 3157 3157 3158 3158 3158 3159 3160 3160 3161 3161 3162 3163 3164 3165 3166 3167 3167 3167 3168 3169 3170 3172 3173 3174 3176 3177 3178 3180 3180 3181 3182 3183 3183 3184 3184 3185 3186 3187 3187 3188 3188 3188 3189 3189 3189 3188 3188 3188 3187 3187 3186 3186 3186 3185 3185 3184 3183 3183
3141 3141 3140 3140 3140 3141 3141 3142 3143 3143 3143 3144 3145 3146 3146 3146 3147 3147 3147 3148 3149 3150 3151 3153 3154 3155 3156 3156 3157 3158 3158 3159 3159 3160 3161 3161 3162 3162 3163 3164 3165 3166 3166 3167 3167 3167 3168 3169 3171 3172 3174 3175 3177 3178 3180 3180 3181 3182 3183 3184 3184 3184 3185 3186 3187 3188 3188 3189 3189 3189 3190 3190 3189 3189 3189 3188 3188 3187 3187 3187 3186 3186 3186 3185 3184
3139 3140 3140 3140 3140 3140 3141 3142 3143 3143 3142 3143 3144 3146 3146 3146 3147 3147 3147 3147 3149 3150 3151 3152 3154 3155 3156 3156 3157 3158 3159 3159 3159 3160 3161 3161 3162 3162 3163 3164 3165 3166 3166 3166 3167 3167 3167 3169 3170 3171 3173 3175 3176 3178 3179 3180 3181 3183 3184 3185 3184 3185 3186 3187 3187 3188 3188 3189 3190 3190 3190 3190 3190 3190 3190 3189 3189 3188 3188 3188 3188 3187 3187 3186 3186
3138 3139 3139 3139 3139 3139 3140 3141 3141 3142 3141 3141 3143 3145 3146 3146 3147 3147 3147 3147 3148 3150 3151 3152 3154 3155 3155 3156 3157 3158 3159 3159 3159 3160 3161 3161 3162 3162 3163 3164 3165 3165 3166 3166 3166 3166 3167 3168 3169 3171 3172 3174 3176 3177 3178 3180 3181 3182 3184 3185 3185 3185 3186 3187 3187 3188 3189 3189 3190 3190 3191 3191 3191 3191 3191 3190 3190 3190 3189 3189 3189 3188 3188 3188 3187
3137 3137 3137 3137 3138 3138 3139 3140 3140 3140 3140 3141 3141 3143 3145 3146 3146 3147 3147 3147 3148 3150 3151 3153 3154 3154 3155 3156 3157 3158 3158 3159 3159 3160 3161 3161 3162 3162 3163 3164 3164 3165 3166 3166 3166 3166 3166 3167 3169 3170 3172 3173 3175 3176 3177 3179 3180 3182 3184 3185 3185 3185 3186 3187 3188 3188 3189 3190 3190 3191 3191 3191 3192 3192 3192 3191 3191 3191 3190 3190 3190 3189 3189 3189 3188
3135 3135 3136 3136 3137 3137 3138 3138 3138 3138 3139 3140 3140 3142 3144 3145 3146 3147 3147 3147 3149 3150 3152 3153 3154 3154 3155 3156 3157 3158 3158 3159 3159 3160 3160 3161 3162 3162 3163 3163 3164 3164 3165 3165 3166 3166 3166 3166 3168 3169 3171 3172 3174 3175 3176 3178 3179 3181 3183 3184 3184 3185 3186 3187 3188 3188 3189 3190 3190 3191 3191 3192 3192 3192 3192 3192 3192 3192 3191 3191 3191 3191 3190 3190 3189
3134 3134 3134 3135 3135 3136 3135 3136 3136 3135 3137 3138 3139 3141 3143 3144 3146 3147 3147 3148 3149 3150 3152 3153 3154 3154 3155 3156 3157 3157 3158 3158 3159 3159 3160 3161 3162 3162 3163 3163 3163 3164 3164 3165 3165 3165 3165 3166 3167 3168 3170 3171 3172 3174 3175 3176 3178 3180 3182 3183 3184 3185 3186 3187 3187 3188 3189 3190 3190 3191 3191 3192 3192 3193 3193 3193 3193 3193 3192 3192 3192 3192 3191 3191 3190
3133 3133 3133 3134 3134 3134 3134 3135 3136 3135 3137 3139 3140 3143 3143 3145 3147 3147 3147 3148 3150 3150 3151 3153 3153 3154 3155 3156 3156 3157 3157 3158 3158 3159 3160 3161 3161 3162 3162 3163 3163 3163 3164 3164 3164 3165 3165 3165 3166 3167 3168 3170 3171 3172 3174 3175 3177 3179 3181 3183 3183 3184 3185 3186 3187 3188 3188 3189 3190 3190 3191 3192 3192 3193 3193 3193 3193 3193 3193 3192 3192 3192 3192 3192 3191
3133 3133 3133 3134 3134 3135 3135 3136 3137 3138 3139 3140 3141 3143 3145 3146 3148 3147 3148 3149 3150 3150 3151 3152 3153 3154 3155 3156 3156 3156 3157 3157 3158 3159 3159 3160 3161 3161 3162 3163 3163 3163 3163 3164 3164 3164 3164 3164 3164 3165 3166 3168 3170 3171 3173 3174 3175 3178 3180 3182 3183 3184 3184 3185 3186 3187 3188 3189 3190 3190 3191 3191 3192 3192 3193 3193 3193 3193 3193 3193 3193 3193 3193 3192 3192
3133 3133 3133 3135 3136 3136 3136 3137 3137 3138 3140 3140 3140 3142 3144 3146 3147 3147 3148 3149 3150 3150 3151 3152 3153 3154 3154 3155 3156 3156 3156 3157 3158 3158 3159 3160 3161 3161 3162 3162 3163 3163 3163 3163 3164 3164 3164 3164 3164 3164 3165 3166 3168 3170 3171 3172 3174 3176 3179 3181 3182 3183 3183 3184 3185 3186 3187 3188 3190 3190 3191 3191 3192 3192 3193 3193 3193 3193 3193 3193 3193 3193 3193 3193 3193
3133 3133 3133 3134 3135 3136 3137 3138 3138 3138 3139 3140 3140 3142 3144 3146 3147 3147 3147 3149 3149 3150 3151 3152 3153 3153 3154 3155 3156 3156 3156 3157 3157 3158 3159 3160 3160 3161 3162 3162 3162 3162 3163 3163 3163 3163 3163 3163 3163 3164 3164 3165 3166 3168 3169 3171 3172 3174 3177 3179 3181 3182 3182 3183 3184 3185 3186 3188 3189 3190 3190 3191 3191 3192 3192 3193 3193 3193 3193 3194 3193 3193 3193 3193 3193
3132 3132 3133 3134 3135 3136 3137 3138 3139 3139 3138 3139 3140 3142 3144 3145 3146 3146 3147 3149 3149 3150 3151 3152 3152 3153 3154 3155 3155 3155 3156 3156 3157 3158 3159 3159 3160 3161 3161 3161 3161 3162 3162 3163 3163 3163 3163 3163 3163 3163 3164 3164 3165 3166 3168 3169 3170 3172 3175 3177 3179 3181 3181 3182 3183 3184 3186 3187 3188 3189 3190 3190 3191 3191 3192 3192 3193 3193 3193 3194 3194 3194 3194 3194 3193
3131 3131 3133 3134 3135 3136 3137 3138 3139 3139 3139 3140 3140 3142 3144 3145 3146 3147 3148 3149 3150 3150 3151 3152 3153 3153 3154 3155 3155 3155 3156 3156 3157 3158 3158 3159 3159 3160 3160 3160 3161 3161 3162 3162 3162 3162 3162 3162 3162 3163 3163 3164 3164 3165 3166 3167 3168 3170 3172 3175 3178 3179 3180 3181 3182 3183 3185 3186 3187 3188 3189 3189 3190 3190 3191 3192 3192 3193 3193 3193 3194 3194 3194 3194 3194
3130 3131 3132 3134 3135 3136 3137 3138 3138 3138 3139 3140 3141 3143 3144 3146 3147 3148 3148 3149 3150 3151 3152 3152 3153 3154 3154 3154 3154 3155 3155 3156 3157 3157 3158 3158 3159 3159 3159 3160 3160 3160 3161 3161 3161 3161 3162 3162 3162 3162 3162 3163 3163 3164 3165 3166 3167 3168 3170 3173 3176 3178 3179 3180 3181 3182 3183 3185 3186 3187 3188 3188 3189 3189 3190 3191 3191 3192 3192 3193 3193 3193 3194 3194 3194
3130 3131 3132 3133 3135 3136 3137 3138 3137 3137 3139 3140 3142 3143 3144 3146 3147 3148 3149 3150 3150 3151 3151 3152 3152 3153 3153 3154 3154 3154 3155 3156 3156 3157 3157 3158 3158 3158 3158 3159 3159 3160 3160 3160 3160 3160 3161 3161 3161 3161 3162 3162 3163 3163 3164 3164 3165 3166 3167 3171 3174 3176 3177 3178 3179 3181 3182 3183 3184 3185 3186 3187 3188 3188 3189 3190 3190 3191 3192 3192 3193 3193 3193 3193 3194
3130 3131 3132 3133 3134 3136 3137 3137 3137 3138 3139 3140 3141 3142 3143 3144 3146 3147 3148 3149 3150 3150 3151 3151 3152 3153 3153 3153 3154 3154 3155 3155 3155 3156 3156 3156 3157 3157 3158 3158 3158 3158 3158 3158 3159 3159 3160 3160 3160 3161 3161 3161 3162 3162 3163 3163 3163 3164 3165 3168 3171 3173 3175 3176 3177 3179 3180 3181 3182 3183 3184 3185 3186 3187 3188 3188 3189 3190 3191 3191 3192 3192 3193 3193 3193
3130 3130 3131 3132 3134 3135 3136 3137 3137 3138 3138 3139 3140 3141 3142 3143 3145 3146 3148 3148 3149 3150 3150 3151 3152 3152 3152 3153 3153 3153 3154 3154 3155 3155 3155 3155 3155 3156 3156 3156 3156 3156 3157 3157 3157 3158 3158 3159 3159 3160 3160 3161 3161 3162 3162 3162 3162 3163 3164 3166 3169 3171 3173 3174 3175 3176 3178 3179 3180 3181 3182 3183 3184 3185 3186 3187 3188 3189 3189 3190 3191 3191 3192 3192 3193
3129 3130 3131 3132 3133 3135 3136 3137 3137 3137 3137 3137 3139 3140 3141 3143 3145 3146 3147 3148 3149 3149 3150 3150 3151 3151 3151 3152 3152 3152 3153 3153 3153 3154 3154 3154 3154 3155 3155 3154 3154 3155 3155 3155 3155 3156 3157 3157 3158 3159 3159 3160 3160 3161 3161 3161 3162 3162 3162 3164 3167 3169 3171 3172 3173 3174 3176 3177 3179 3180 3180 3181 3182 3183 3184 3185 3186 3187 3188 3189 3189 3190 3191 3191 3192
3129 3130 3131 3132 3133 3135 3136 3137 3137 3137 3137 3138 3139 3140 3142 3143 3145 3146 3147 3148 3149 3149 3149 3150 3150 3150 3150 3151 3151 3151 3152 3152 3152 3153 3153 3153 3153 3153 3153 3154 3153 3153 3153 3153 3154 3155 3155 3156 3157 3158 3158 3159 3160 3160 3160 3161 3161 3161 3162 3163 3165 3167 3169 3171 3172 3173 3174 3175 3177 3178 3178 3179 3180 3181 3182 3184 3185 3185 3186 3187 3188 3189 3190 3190 3191
3129 3130 3131 3132 3134 3135 3137 3137 3137 3138 3138 3139 3141 3141 3142 3143 3145 3146 3147 3148 3148 3148 3149 3149 3149 3149 3149 3149 3150 3150 3150 3151 3152 3152 3152 3152 3152 3152 3152 3154 3153 3153 3153 3153 3153 3154 3154 3155 3156 3157 3158 3158 3159 3160 3160 3160 3161 3161 3162 3162 3163 3165 3167 3169 3171 3172 3173 3173 3175 3176 3176 3177 3178 3179 3180 3182 3183 3184 3184 3185 3186 3187 3188 3189 3189
3129 3130 3131 3132 3134 3136 3136 3137 3137 3138 3139 3140 3141 3142 3143 3144 3145 3146 3147 3147 3147 3148 3148 3148 3148 3148 3148 3148 3148 3149 3150 3151 3152 3151 3151 3151 3151 3151 3152 3153 3152 3152 3153 3154 3153 3154 3154 3155 3156 3156 3157 3158 3159 3159 3160 3160 3160 3161 3162 3162 3162 3163 3165 3167 3169 3170 3171 3172 3173 3174 3174 3175 3175 3177 3178 3179 3181 3182 3182 3183 3184 3185 3186 3187 3188
3128 3130 3131 3133 3135 3136 3137 3138 3138 3139 3140 3141 3141 3142 3143 3144 3145 3145 3146 3146 3146 3147 3147 3147 3147 3147 3147 3147 3148 3149 3150 3151 3150 3150 3150 3150 3150 3150 3151 3152 3151 3151 3153 3154 3154 3154 3154 3155 3155 3156 3157 3157 3158 3158 3159 3160 3160 3161 3161 3162 3161 3162 3163 3165 3166 3168 3169 3170 3171 3172 3172 3173 3173 3174 3176 3177 3178 3179 3180 3181 3182 3183 3184 3185 3186
3127 3129 3130 3133 3135 3136 3138 3139 3139 3139 3140 3141 3141 3142 3143 3143 3144 3144 3145 3145 3145 3145 3146 3146 3146 3146 3146 3146 3147 3149 3149 3148 3148 3149 3149 3149 3149 3149 3150 3151 3151 3151 3152 3153 3153 3153 3153 3154 3155 3156 3156 3157 3157 3158 3159 3160 3160 3161 3161 3161 3161 3161 3161 3163 3164 3166 3167 3168 3169 3170 3171 3171 3172 3173 3174 3175 3176 3177 3178 3179 3180 3181 3182 3183 3184
3126 3128 3130 3132 3135 3136 3139 3139 3139 3140 3140 3141 3141 3142 3142 3143 3143 3143 3144 3144 3144 3144 3144 3144 3144 3144 3144 3145 3146 3147 3146 3146 3147 3148 3148 3148 3148 3149 3150 3150 3150 3150 3150 3151 3152 3153 3153 3153 3154 3154 3155 3156 3156 3157 3158 3159 3160 3161 3161 3161 3161 3160 3160 3161 3162 3164 3165 3166 3167 3168 3169 3170 3170 3171 3172 3173 3174 3176 3177 3178 3178 3179 3180 3181 3182
3125 3128 3130 3133 3135 3137 3138 3139 3140 3140 3141 3141 3141 3141 3142 3142 3142 3143 3143 3143 3143 3143 3143 3143 3143 3143 3143 3144 3145 3145 3145 3145 3146 3146 3146 3147 3147 3148 3149 3149 3149 3149 3150 3151 3151 3152 3152 3153 3153 3153 3154 3155 3156 3156 3157 3158 3159 3160 3161 3161 3160 3160 3160 3160 3161 3162 3163 3164 3165 3166 3167 3168 3168 3169 3170 3171 3172 3173 3174 3175 3176 3177 3178 3179 3180
3123 3126 3130 3133 3135 3137 3138 3139 3140 3140 3141 3141 3142 3141 3141 3141 3142 3142 3142 3142 3142 3142 3142 3141 3141 3141 3142 3143 3143 3144 3144 3144 3145 3145 3145 3145 3146 3147 3147 3148 3148 3148 3149 3150 3151 3151 3152 3152 3152 3152 3153 3154 3155 3155 3156 3157 3158 3159 3160 3160 3160 3160 3160 3160 3160 3161 3162 3163 3164 3164 3165 3166 3167 3167 3168 3169 3170 3171 3172 3173 3174 3175 3176 3177 3178
3122 3122 3128 3133 3134 3136 3138 3139 3140 3141 3141 3142 3142 3142 3141 3141 3141 3141 3141 3141 3141 3141 3141 3140 3140 3140 3140 3141 3142 3142 3142 3143 3143 3144 3144 3144 3145 3145 3146 3146 3147 3147 3148 3149 3150 3151 3151 3151 3151 3152 3152 3153 3153 3154 3154 3155 3157 3158 3159 3159 3159 3159 3159 3159 3160 3161 3162 3162 3163 3163 3164 3164 3165 3165 3166 3167 3168 3169 3170 3171 3172 3173 3174 3175 3176
3126 3125 3127 3131 3133 3136 3137 3139 3139 3140 3142 3142 3142 3142 3142 3142 3141 3141 3141 3141 3140 3140 3140 3139 3139 3139 3139 3139 3140 3141 3141 3141 3142 3142 3143 3143 3143 3144 3145 3145 3146 3146 3147 3148 3149 3150 3150 3150 3151 3151 3151 3152 3152 3152 3153 3154 3155 3157 3157 3158 3158 3158 3158 3159 3159 3160 3161 3162 3162 3162 3162 3163 3163 3164 3165 3165 3166 3167 3168 3169 3170 3171 3172 3173 3174
3128 3129 3128 3129 3132 3135 3136 3138 3139 3140 3141 3142 3142 3142 3142 3142 3142 3142 3141 3141 3140 3140 3139 3139 3138 3138 3137 3137 3138 3139 3140 3140 3141 3141 3141 3141 3142 3143 3144 3144 3145 3146 3147 3147 3148 3148 3149 3149 3149 3150 3150 3151 3151 3151 3151 3152 3154 3155 3155 3156 3157 3157 3158 3158 3159 3159 3160 3161 3161 3162 3162 3162 3162 3163 3164 3164 3165 3166 3167 3168 3169 3170 3171 3171 3172
3126 3128 3128 3128 3130 3134 3136 3137 3139 3140 3141 3142 3142 3142 3142 3142 3142 3142 3141 3140 3140 3139 3139 3138 3138 3137 3137 3136 3137 3138 3138 3139 3140 3140 3140 3140 3141 3141 3142 3143 3144 3145 3146 3146 3146 3147 3147 3148 3148 3148 3149 3149 3150 3150 3150 3151 3152 3153 3154 3154 3155 3156 3157 3157 3158 3159 3159 3160 3160 3161 3161 3161 3162 3162 3163 3163 3163 3164 3165 3166 3167 3168 3169 3170 3171
3124 3125 3125 3127 3129 3133 3135 3137 3138 3140 3141 3142 3142 3142 3142 3142 3142 3141 3141 3140 3139 3139 3138 3137 3137 3137 3136 3136 3136 3136 3137 3138 3139 3140 3140 3140 3140 3140 3141 3142 3143 3144 3145 3145 3145 3145 3146 3146 3147 3147 3148 3148 3148 3148 3148 3149 3151 3152 3152 3153 3154 3154 3155 3156 3157 3157 3158 3159 3159 3160 3160 3160 3161 3161 3162 3162 3162 3163 3164 3165 3166 3167 3167 3168 3169
3122 3123 3125 3128 3130 3132 3134 3136 3137 3139 3140 3141 3142 3142 3142 3142 3141 3141 3140 3140 3139 3138 3137 3136 3136 3135 3135 3135 3135 3135 3135 3136 3137 3138 3139 3139 3139 3139 3140 3140 3141 3143 3143 3143 3143 3143 3144 3145 3145 3146 3146 3147 3147 3147 3146 3148 3149 3150 3151 3151 3152 3153 3154 3155 3155 3156 3157 3158 3158 3158 3159 3159 3160 3160 3161 3161 3161 3162 3163 3163 3164 3165 3166 3167 3168
3120 3123 3126 3128 3129 3131 3133 3135 3136 3137 3139 3141 3141 3141 3141 3141 3141 3141 3140 3139 3138 3137 3136 3135 3134 3134 3134 3133 3133 3133 3133 3133 3134 3135 3136 3137 3137 3137 3138 3139 3140 3141 3141 3142 3142 3142 3142 3143 3144 3144 3144 3145 3145 3145 3145 3146 3147 3147 3149 3150 3150 3151 3152 3153 3154 3155 3156 3156 3157 3157 3157 3158 3158 3159 3159 3160 3160 3161 3161 3162 3162 3163 3164 3164 3165
3119 3122 3125 3127 3129 3131 3132 3133 3134 3136 3138 3140 3140 3140 3140 3140 3140 3139 3139 3137 3137 3136 3135 3135 3134 3133 3133 3133 3133 3132 3132 3132 3132 3133 3133 3134 3134 3135 3136 3136 3137 3138 3139 3139 3140 3140 3140 3141 3142 3142 3143 3143 3143 3143 3144 3145 3145 3144 3147 3149 3149 3150 3150 3151 3153 3154 3154 3155 3155 3156 3156 3156 3157 3157 3158 3158 3158 3159 3159 3160 3160 3161 3161 3161 3161
3119 3122 3124 3127 3129 3130 3132 3133 3134 3135 3137 3139 3139 3139 3139 3139 3139 3138 3137 3137 3136 3136 3135 3134 3134 3134 3133 3133 3133 3132 3131 3131 3131 3132 3132 3132 3133 3133 3134 3134 3135 3136 3137 3137 3138 3138 3138 3139 3140 3140 3141 3141 3142 3142 3142 3144 3145 3144 3145 3147 3148 3148 3149 3150 3151 3152 3152 3153 3153 3154 3154 3155 3155 3156 3156 3156 3157 3157 3157 3158 3158 3159 3159 3158 3159
3120 3122 3124 3126 3128 3130 3131 3133 3133 3135 3137 3138 3138 3138 3138 3138 3137 3137 3136 3136 3136 3135 3135 3135 3135 3135 3134 3133 3132 3132 3131 3131 3131 3131 3131 3131 3132 3132 3133 3133 3133 3134 3135 3136 3136 3137 3137 3137 3138 3139 3139 3140 3140 3141 3141 3142 3144 3145 3145 3145 3146 3147 3148 3149 3149 3150 3150 3151 3151 3152 3152 3153 3153 3153 3154 3154 3155 3155 3155 3156 3157 3157 3157 3157 3159
3120 3123 3125 3127 3128 3130 3131 3132 3133 3134 3136 3138 3138 3137 3137 3136 3136 3136 3136 3136 3136 3136 3136 3136 3136 3135 3135 3134 3133 3132 3131 3131 3131 3131 3131 3131 3131 3132 3132 3132 3132 3133 3133 3134 3134 3135 3136 3136 3136 3137 3137 3138 3139 3139 3139 3140 3141 3144 3144 3145 3145 3146 3146 3147 3147 3148 3149 3149 3149 3150 3150 3151 3151 3151 3151 3152 3153 3153 3154 3155 3155 3156 3156 3157 3158
3120 3122 3125 3127 3128 3129 3130 3132 3133 3134 3136 3138 3137 3137 3137 3136 3136 3136 3136 3137 3137 3136 3136 3136 3136 3135 3135 3134 3133 3133 3132 3131 3131 3131 3131 3131 3131 3131 3131 3131 3131 3132 3132 3132 3133 3134 3134 3135 3135 3136 3136 3137 3137 3137 3138 3139 3140 3141 3142 3143 3144 3144 3145 3145 3146 3146 3147 3147 3148 3148 3149 3149 3149 3149 3150 3151 3151 3152 3153 3153 3154 3154 3154 3155 3155
3120 3122 3124 3125 3127 3128 3129 3131 3132 3134 3136 3137 3137 3137 3137 3137 3137 3137 3137 3137 3137 3137 3136 3136 3135 3135 3135 3134 3134 3133 3132 3132 3131 3131 3131 3131 3131 3131 3131 3131 3131 3131 3131 3132 3132 3133 3133 3134 3134 3135 3135 3135 3136 3136 3136 3137 3138 3139 3140 3141 3142 3142 3142 3143 3144 3144 3145 3146 3146 3146 3146 3147 3147 3148 3148 3149 3149 3149 3151 3152 3153 3153 3152 3152 3152
3118 3120 3122 3123 3125 3126 3128 3129 3131 3133 3135 3137 3136 3136 3137 3137 3137 3137 3137 3137 3137 3137 3136 3136 3136 3135 3135 3135 3134 3133 3132 3132 3131 3131 3131 3131 3131 3131 3131 3131 3130 3131 3131 3131 3132 3132 3133 3133 3134 3134 3134 3135 3135 3135 3136 3136 3137 3138 3139 3140 3140 3141 3141 3141 3142 3142 3143 3144 3144 3144 3144 3145 3146 3147 3147 3147 3147 3148 3150 3150 3151 3150 3150 3150 3150
3117 3118 3119 3120 3122 3123 3125 3128 3130 3132 3134 3135 3135 3136 3136 3137 3136 3136 3136 3136 3136 3137 3136 3136 3136 3135 3135 3135 3134 3133 3133 3132 3131 3131 3130 3130 3130 3131 3131 3131 3131 3131 3131 3131 3132 3132 3133 3133 3133 3134 3134 3134 3134 3134 3135 3135 3136 3137 3138 3138 3138 3139 3139 3139 3140 3140 3141 3141 3142 3142 3142 3143 3145 3145 3146 3146 3146 3147 3149 3149 3149 3149 3148 3148 3149
3115 3116 3117 3119 3120 3122 3124 3126 3128 3131 3133 3134 3134 3135 3135 3136 3135 3135 3135 3135 3136 3136 3136 3135 3135 3135 3135 3134 3134 3133 3133 3132 3131 3131 3130 3130 3130 3130 3131 3131 3131 3131 3131 3132 3132 3133 3133 3133 3133 3133 3134 3134 3134 3134 3134 3135 3135 3136 3136 3137 3137 3138 3138 3138 3139 3140 3139 3140 3141 3141 3141 3142 3143 3144 3145 3145 3145 3146 3147 3148 3148 3148 3148 3147 3147
3112 3113 3116 3119 3120 3121 3122 3124 3127 3130 3132 3133 3133 3134 3134 3134 3134 3134 3134 3135 3135 3135 3135 3135 3134 3134 3134 3134 3134 3134 3133 3133 3132 3131 3131 3130 3130 3130 3131 3131 3131 3132 3132 3132 3132 3133 3133 3134 3133 3134 3134 3134 3134 3134 3134 3134 3135 3135 3135 3136 3136 3137 3137 3137 3138 3139 3139 3139 3140 3140 3140 3141 3142 3143 3143 3144 3144 3144 3145 3145 3146 3146 3146 3146 3145